Location: Krakow
(50.0614°N, 19.9383°E)
Time: 11:34:05
(UTC+02:00)

ISS - Visible Passes

Search period start: 26 September 2018 00:00
Search period end: 06 October 2018 00:00
Orbit: 403 x 408 km, 51.6° (Epoch: 26 September)

Date Brightness Start Highest point End Pass type
(mag) Time Alt. Az. Time Alt. Az. Time Alt. Az.
26 Sep -3.9 20:12:29 10° WSW 20:15:47 80° SSE 20:16:23 56° E visible
27 Sep -3.6 19:20:40 10° SW 19:23:55 57° SSE 19:26:35 14° ENE visible
27 Sep -2.2 20:57:09 10° W 20:59:16 35° WNW 20:59:16 35° WNW visible
28 Sep -3.7 20:05:10 10° W 20:08:29 74° N 20:09:23 44° ENE visible
28 Sep -0.4 21:41:51 10° WNW 21:42:03 11° WNW 21:42:03 11° WNW visible
29 Sep -3.8 19:13:13 10° WSW 19:16:32 89° SSE 19:19:26 13° ENE visible
29 Sep -2.4 20:49:52 10° W 20:52:07 38° WNW 20:52:07 38° WNW visible
30 Sep -3.6 19:57:53 10° W 20:01:10 64° N 20:02:08 40° ENE visible
30 Sep -0.5 21:34:29 10° WNW 21:34:48 12° WNW 21:34:48 12° WNW visible
01 Oct -3.6 19:05:51 10° W 19:09:10 70° N 19:12:07 12° ENE visible
01 Oct -2.5 20:42:31 10° WNW 20:44:47 40° WNW 20:44:47 40° WNW visible
02 Oct -3.7 19:50:31 10° WNW 19:53:49 66° N 19:54:46 41° ENE visible
02 Oct -0.5 21:27:04 10° WNW 21:27:26 12° WNW 21:27:26 12° WNW visible
03 Oct -3.6 18:58:29 10° W 19:01:47 63° N 19:04:44 12° E visible
03 Oct -2.6 20:35:04 10° WNW 20:37:24 42° W 20:37:24 42° W visible
04 Oct -3.9 19:43:04 10° WNW 19:46:23 83° NNE 19:47:23 42° E visible
04 Oct -0.5 21:19:44 10° W 21:20:03 12° W 21:20:03 12° W visible
05 Oct -3.7 18:51:02 10° WNW 18:54:21 69° N 18:57:23 12° E visible
05 Oct -2.5 20:27:37 10° WNW 20:30:03 37° WSW 20:30:03 37° WSW visible
